Location: Villingen
(48.0639°N, 8.4609°E)
Time: 12:25:30
(UTC+02:00)

ISS - Pass Details

Date: 04 January 2018
Orbit: 402 x 408 km, 51.6° (Epoch: 20 July)

Event Time Altitude Azimuth Distance (km) Brightness Sun altitude
Exits shadow 05:29:30 21° 64° (ENE) 994 -1.3 -26.8°
Drops below altitude 10° 05:30:47 10° 66° (ENE) 1,501 -0.2 -26.6°
Enters shadow 06:27:04 -69° 259° (WSW) 12,301 3.6 -17.3°
